Location: Spring Creek
(38.2870°N, 100.2160°W)
Time: 23:05:06
(UTC+00:00)

Cosmos 1340 - Pass Details

Date: 08 May 2021
Orbit: 500 x 503 km, 81.2° (Epoch: 21 June)

Event Time Altitude Azimuth Distance (km) Brightness Sun altitude
Exits shadow 09:43:38 12° 151° (SSE) 1,590 5.0 -19.4°
Maximum altitude 09:46:33 29° 93° (E) 951 4.5 -19.0°
Drops below altitude 10° 09:49:49 10° 32° (NNE) 1,711 6.5 -18.5°
Sets 09:52:08 0° 21° (NNE) 2,600 7.4 -18.2°
